Flag for U.S.A. Weather past 2 weeks in Santa Rosa, California, U.S.A.

Now
74 °F

Sunny.


Feels Like: 77 °F
Forecast: 48 / 73 °F
Wind: 9 mph from Southwest

Location: Santa Rosa Sonoma County Airport


UV Index: 5 (Moderate)

Visibility: 10 mi


Pressure: 29.80 "Hg

Humidity: 46%

Dew point: 52 °F

Location of Santa RosaLocation

Historic Weather in Santa Rosa

°F

Santa Rosa temperature yesterday

Maximum temperature yesterday: 79 °F (at 2:53 PM)
Minimum temperature yesterday: 44 °F (at 6:55 AM)
Average temperature yesterday: 60 °F

Past Weeks' High & Low Weather Summary

 TemperatureHumidityPressure
High84 °F (Apr 7, 3:53 PM)100% (Apr 3, 2:53 AM)30.21 "Hg (Apr 3, 2:53 AM)
Low40 °F (Apr 5, 6:01 AM)23% (Apr 7, 3:53 PM)29.77 "Hg (Apr 17, 5:53 AM)
Average56 °F78%29.99 "Hg
* Reported Apr 2 12:53 PM — Apr 17 12:53 PM, Santa Rosa, Weather by CustomWeather, © 2014

Note: Actual official high and low records may vary slightly from our data, if they occured in-between our weather recording intervals... More about our weather records

Advertising

Historic Weather Conditions — Data for Previous 24 hours

 ConditionsComfort  
Time TempWeatherWind HumidityBarometerVisibility
12:53 PM
Apr 17
74 °FSunny.9 mph46%29.80 "Hg10 mi
11:53 AM71 °FScattered clouds.3 mph51%29.81 "Hg10 mi
10:53 AM67 °FSunny.No wind55%29.82 "Hg10 mi
9:53 AM62 °FScattered clouds.No wind65%29.82 "Hg10 mi
8:53 AM57 °FScattered clouds.No wind78%29.81 "Hg10 mi
7:53 AM51 °FSunny.5 mph92%29.80 "Hg8 mi
6:53 AM46 °FPassing clouds.No wind96%29.78 "Hg10 mi
5:53 AM48 °FFog.No wind93%29.77 "Hg5 mi
4:53 AM47 °FFog.No wind97%29.78 "Hg6 mi
3:53 AM48 °FClear.No wind96%29.78 "Hg7 mi
2:53 AM49 °FClear.3 mph93%29.79 "Hg8 mi
1:53 AM49 °FClear.No wind93%29.80 "Hg9 mi
12:53 AM51 °FClear.No wind86%29.80 "Hg9 mi
11:53 PM
Apr 16
51 °FClear.3 mph89%29.82 "Hg9 mi
10:53 PM52 °FClear.No wind86%29.82 "Hg9 mi
9:53 PM54 °FClear.5 mph80%29.82 "Hg10 mi
8:53 PM57 °FClear.7 mph74%29.80 "Hg10 mi
7:53 PM61 °FSunny.9 mph70%29.78 "Hg10 mi
6:53 PM70 °FSunny.10 mph55%29.77 "Hg10 mi
5:53 PM77 °FPassing clouds.9 mph31%29.78 "Hg10 mi
4:53 PM79 °FPassing clouds.12 mph30%29.79 "Hg10 mi
3:53 PM79 °FScattered clouds.14 mph31%29.80 "Hg10 mi
2:53 PM79 °FScattered clouds.8 mph39%29.82 "Hg10 mi
1:53 PM77 °FSunny.No wind32%29.83 "Hg10 mi
Weather by CustomWeather, © 2014

See weather overview